Погода в Серафимовском

Россия / Республика Башкортостан     54°25′21″N   53°47′24″E
В апреле 2022 года жителям России запретили посещать сайт meteo.paraplan.net по решению Генеральной прокуратуры. Аудитория сайта уменьшилась в 10 раз. Владельцы сайта не видят смысла в поддержке погодного сервера в таких условиях. Сайт будет закрыт в октябре.
темп.,
°C
ветер,
м/с
пор.,
м/с
влажн.,
%
обл.,
%
осадки,
мм/ч
давл.,
гПа
погр.,
м
3 октября, пн
пн323:00+13ю71646100 0.0 1019586
02:00+12ю71747100 0.0 1019554
05:00+11ю61653100 0.9 1020483
08:00+11ю71649100 0.1 1021468
11:00+13ю7154126 0.1 1021573
14:00+16ю8123326 0.0 1022886
17:00+16ю6113513 0.0 1023961
20:00+13ю5124213 0.0 1024416
4 октября, вт
вт423:00+11ю515415 0.0 1025475
02:00+10ю514415 0.0 1027417
05:00+8ююв410455 0.0 1027245
08:00+7ююв3104376 0.0 1028218
11:00+12ю61128100 0.0 1029514
14:00+14ю5925100 0.0 1029766
17:00+14ююв592881 0.0 1029817
20:00+10ююв3103597 0.0 1030254
5 октября, ср
ср523:00+8ююв3938100 0.0 1030182
02:00+10ююв41231100 0.0 1030394
05:00+9ююв2533100 0.0 1030119
08:00+8юв2239100 0.0 103055
11:00+10ююв51131100 0.0 1028481
14:00+12ю71427100 0.0 1027646
17:00+12ю61131100 0.0 1026631
20:00+10ю61341100 0.0 1027684
6 октября, чт
чт623:00+10ю61145100 0.2 1025716
02:00+9ю3970100 1.0 1023439
05:00+9вюв2262100 1.1 102151
08:00+9ю2247100 0.0 102050
11:00+9ююв31168100 0.7 1019438
14:00+10ю4965100 0.0 1018584
17:00+7ю3789100 3.6 1017337
20:00+8ююз398588 0.4 1017410
7 октября, пт
пт723:00+6ююз3795100 0.6 1016234
02:00+7ююз259490 2.1 1015239
05:00+5з379216 2.3 1015165
08:00+4зюз378939 0.0 1016178
11:00+7зюз477267 0.0 1015602
14:00+10юз6854100 0.0 10141333
17:00+7ююз51186100 0.6 1013717
20:00+8зюз51095100 0.1 1013712